Weather History for West Plains, MO

Change the Weather History Date:

Thursday, March 21, 2013

  Actual Average Record
Temperature  
Mean Temperature 28 °F 49 °F  
Max Temperature 37 °F 62 °F 79 °F (1966)
Min Temperature 19 °F 37 °F 15 °F (1960)
Degree Days  
Heating Degree Days 37 16  
Month to date heating degree days 507 407  
Since 1 July heating degree days 3819 3871  
Cooling Degree Days 0 0  
Month to date cooling degree days 0 0  
Year to date cooling degree days 0 0  
Moisture  
Dew Point 22 °F    
Average Humidity 62    
Maximum Humidity 92    
Minimum Humidity 32    
Precipitation  
Precipitation 0.00 in 0.13 in 2.10 in (2012)
Month to date precipitation 2.64 2.73  
Year to date precipitation 9.96 8.29  
Sea Level Pressure  
Sea Level Pressure 30.00 in    
Wind  
Wind Speed 4 mph (ESE)    
Max Wind Speed 10 mph    
Max Gust Speed 13 mph    
Visibility 3 miles    
Events Fog , Snow    
T = Trace of Precipitation, MM = Missing Value Source: NWS Daily Summary

Daily Weather History Graph

Daily Weather History Graph

Search for Another Location

Airport:

Trip Planner

Search our weather history database for the weather conditions in past years. The results will help you decide how hot, cold, wet, or windy it might be!

Date:

Astronomy

Mar. 21, 2013 Rise Set
Actual Time 7:09 AM CDT 7:20 PM CDT
Civil Twilight 6:43 AM CDT 7:46 PM CDT
Nautical Twilight 6:13 AM CDT 8:16 PM CDT
Astronomical Twilight 5:42 AM CDT 8:47 PM CDT
Moon 1:57 PM CDT (3/21) 3:24 AM CDT (3/21)
Length of Visible Light 13h 03m
Length of Day
12h 11m
Waxing Gibbous, 69% of the Moon is Illuminated
Mar 21
Waxing Gibbous
Mar 27
Full
Apr 2
Last Quarter
Apr 10
New
Apr 18
First Quarter

Hourly Weather History & Observations

Time (CDT) Temp. Windchill Dew Point Humidity Pressure Visibility Wind Dir Wind Speed Gust Speed Precip Events Conditions
1:53 AM 26.1 °F - 7.0 °F 44% 30.12 in 10.0 mi Calm Calm - N/A   Clear
2:53 AM 21.0 °F - 12.0 °F 68% 30.09 in 10.0 mi Calm Calm - N/A   Clear
3:53 AM 21.0 °F - 12.0 °F 68% 30.10 in 9.0 mi Calm Calm - N/A   Clear
4:53 AM 23.0 °F - 15.1 °F 72% 30.10 in 10.0 mi Calm Calm - N/A   Clear
5:53 AM 21.9 °F - 12.0 °F 66% 30.09 in 10.0 mi Calm Calm - N/A   Clear
6:53 AM 23.0 °F - 16.0 °F 74% 30.09 in 10.0 mi Calm Calm - N/A   Mostly Cloudy
7:53 AM 25.0 °F - 14.0 °F 63% 30.10 in 10.0 mi Calm Calm - N/A   Overcast
8:53 AM 27.0 °F 20.5 °F 12.0 °F 53% 30.12 in 10.0 mi East 5.8 mph - N/A   Overcast
9:53 AM 28.0 °F 22.8 °F 12.0 °F 51% 30.11 in 10.0 mi East 4.6 mph - N/A   Overcast
10:53 AM 30.0 °F 26.5 °F 8.1 °F 40% 30.11 in 10.0 mi ENE 3.5 mph - N/A   Overcast
11:53 AM 32.0 °F 26.4 °F 10.9 °F 42% 30.07 in 10.0 mi East 5.8 mph - N/A   Overcast
12:53 PM 36.0 °F 30.3 °F 10.0 °F 34% 30.04 in 10.0 mi Variable 6.9 mph - N/A   Overcast
1:53 PM 37.0 °F 33.3 °F 10.9 °F 34% 29.99 in 10.0 mi SSE 4.6 mph - N/A   Overcast
3:12 PM 33.8 °F 27.7 °F 19.4 °F 56% 29.96 in 4.0 mi East 6.9 mph - 0.00 in Snow Light Snow
3:16 PM 32.0 °F 25.6 °F 21.2 °F 64% 29.96 in 1.8 mi East 6.9 mph - 0.00 in Snow Light Snow
3:20 PM 32.0 °F 28.7 °F 23.0 °F 69% 29.96 in 0.8 mi ESE 3.5 mph - 0.00 in Snow Light Snow
3:39 PM 30.2 °F 25.4 °F 24.8 °F 80% 29.97 in 0.2 mi SSE 4.6 mph - 0.00 in Snow Heavy Snow
3:53 PM 28.9 °F - 27.0 °F 92% 30.01 in 0.2 mi Calm Calm - 0.00 in Fog , Snow Snow
4:00 PM 28.4 °F 22.2 °F 26.6 °F 93% 29.96 in 0.2 mi ESE 5.8 mph - 0.00 in Fog , Snow Snow
4:21 PM 28.4 °F 23.3 °F 26.6 °F 93% 29.96 in 0.5 mi SSE 4.6 mph - 0.00 in Fog , Snow Snow
4:44 PM 28.4 °F 23.3 °F 26.6 °F 93% 29.97 in 0.5 mi South 4.6 mph - 0.00 in Fog , Snow Snow
4:53 PM 28.9 °F 25.2 °F 27.0 °F 92% 30.01 in 0.5 mi South 3.5 mph - 0.00 in Fog , Snow Snow
5:00 PM 28.4 °F 24.6 °F 26.6 °F 93% 29.97 in 0.5 mi South 3.5 mph - 0.00 in Fog , Snow Light Snow
5:53 PM 28.9 °F 22.8 °F 27.0 °F 92% 29.99 in 0.5 mi ESE 5.8 mph - 0.00 in Fog , Snow Snow
6:02 PM 28.4 °F 23.3 °F 26.6 °F 93% 29.95 in 0.2 mi ESE 4.6 mph - 0.00 in Fog , Snow Snow
6:29 PM 28.4 °F 21.2 °F 26.6 °F 93% 29.94 in 0.2 mi East 6.9 mph - 0.00 in Fog , Snow Heavy Snow
6:53 PM 28.9 °F 22.8 °F 27.0 °F 92% 29.98 in 0.2 mi ESE 5.8 mph - 0.00 in Fog , Snow Snow
7:15 PM 28.4 °F 23.3 °F 26.6 °F 93% 29.95 in 0.2 mi East 4.6 mph - 0.00 in Fog , Snow Snow
7:25 PM 28.4 °F 24.6 °F 26.6 °F 93% 29.95 in 1.2 mi East 3.5 mph - 0.00 in Snow Light Snow
7:40 PM 28.4 °F 23.3 °F 26.6 °F 93% 29.95 in 0.8 mi East 4.6 mph - 0.00 in Snow Light Snow
7:53 PM 28.9 °F 23.9 °F 27.0 °F 92% 29.99 in 0.5 mi East 4.6 mph - 0.00 in Fog , Snow Snow
8:04 PM 28.4 °F 22.2 °F 26.6 °F 93% 29.95 in 0.8 mi East 5.8 mph - 0.00 in Snow Light Snow
8:28 PM 28.4 °F 21.2 °F 26.6 °F 93% 29.95 in 0.5 mi ESE 6.9 mph - 0.00 in Fog , Snow Snow
8:53 PM 28.9 °F 22.8 °F 26.1 °F 89% 29.99 in 0.5 mi ESE 5.8 mph - 0.00 in Fog , Snow Snow
9:21 PM 28.4 °F 21.2 °F 26.6 °F 93% 29.95 in 1.0 mi ESE 6.9 mph - 0.00 in Snow Light Snow
9:33 PM 28.4 °F 23.3 °F 26.6 °F 93% 29.95 in 1.0 mi SE 4.6 mph - 0.00 in Snow Light Snow
9:53 PM 28.0 °F 20.8 °F 26.1 °F 92% 29.99 in 1.0 mi ESE 6.9 mph - 0.00 in Snow Light Snow
10:02 PM 28.4 °F 21.2 °F 26.6 °F 93% 29.95 in 1.0 mi ESE 6.9 mph - 0.00 in Snow Light Snow
10:18 PM 28.4 °F 20.4 °F 26.6 °F 93% 29.95 in 1.5 mi ESE 8.1 mph - 0.00 in Snow Light Snow
10:25 PM 28.4 °F 21.2 °F 26.6 °F 93% 29.95 in 2.5 mi ESE 6.9 mph - 0.00 in Snow Light Snow
10:41 PM 28.4 °F 21.2 °F 26.6 °F 93% 29.94 in 1.2 mi ESE 6.9 mph - 0.00 in Snow Light Snow
10:44 PM 28.4 °F 19.7 °F 26.6 °F 93% 29.94 in 1.0 mi ESE 9.2 mph - 0.00 in Snow Light Snow
10:53 PM 28.9 °F 21.1 °F 26.1 °F 89% 29.97 in 1.0 mi ESE 8.1 mph - 0.00 in Snow Light Snow
11:05 PM 28.4 °F 20.4 °F 26.6 °F 93% 29.95 in 1.2 mi ESE 8.1 mph - 0.00 in Snow Light Snow
11:32 PM 28.4 °F 22.2 °F 26.6 °F 93% 29.95 in 1.0 mi SE 5.8 mph - 0.00 in Snow Light Snow
11:39 PM 28.4 °F 23.3 °F 26.6 °F 93% 29.95 in 1.5 mi SE 4.6 mph - 0.00 in Snow Light Snow
11:48 PM 28.4 °F 21.2 °F 26.6 °F 93% 29.95 in 2.0 mi SE 6.9 mph - 0.00 in Snow Light Snow
11:53 PM 28.9 °F 22.8 °F 26.1 °F 89% 29.98 in 1.8 mi SE 5.8 mph - 0.00 in Snow Light Snow